{"data":{"norad_id":48236,"intl_designator":"2021-031AC","name":"ONEWEB-0197","alt_names":[],"object_type":"PAYLOAD","status":"ACTIVE","operator":null,"country":"UK","launch_date":"2021-04-25","launch_site_code":"VOSTO","launch_vehicle":null,"mission":null,"orbit_class":"UNKNOWN","rcs_meters":null,"size_class":null,"mass_kg":null,"dimensions":null,"purposes":["comms"],"wikipedia_slug":null,"has_3d_model":false,"image_url":null,"decayed_at":null,"tle_current":{"epoch":"2026-05-25T03:54:21.170592Z","epoch_age_seconds":54304,"freshness":"FRESH","line1":"1 48236U 21031AC  26145.16274503  .00000153  00000+0  37701-3 0  9995","line2":"2 48236  87.8939 294.2789 0002070 102.7135 257.4226 13.14502145245160","mean_motion":13.14502145,"eccentricity":0.000207,"inclination_deg":87.8939,"raan_deg":294.2789,"arg_perigee_deg":102.7135,"mean_anomaly_deg":257.4226,"bstar":0.00037701,"rev_number":24516,"period_min":109.54717765029,"perigee_km":1204.2230004773,"apogee_km":1207.3627474451,"semimajor_km":7583.9298739612,"source":"CELESTRAK","updated_at":"2026-05-25T13:38:22.438780Z"}}}